When you browse on this site, cookies collect data to enhance your experience and personalize the content and advertising you see.
Visit our Privacy Policy to learn more. By continuing to use the site, you agree to this use of cookies and data.
  • In Spain
  • List of Countries
  • For 7 days
  • Water Temperature
  • Weather Map
  • Weather Widgets
  • user-avatar
    Login

    Hourly Weather Karlsruhe

    Today, 11 December, Wednesday

    Time Temperature Precipitation Wind Pressure Humidity
    00:00 +1°C° 0 mm 2 mps 755 mmHg 80%
    01:00 +1°C° 0 mm 2 mps 755 mmHg 78%
    02:00 +1°C° 0 mm 2 mps 754 mmHg 77%
    03:00 +1°C° 0 mm 2 mps 753 mmHg 76%
    04:00 +2°C° 0 mm 1 mps 752 mmHg 75%
    05:00 +2°C° 0 mm 1 mps 752 mmHg 74%
    06:00 +3°C° 0 mm 1 mps 751 mmHg 72%
    07:00 +3°C° 0 mm 1 mps 751 mmHg 68%
    08:00 +3°C° 0 mm 1 mps 750 mmHg 67%
    09:00 +3°C° 0 mm 1 mps 750 mmHg 66%
    10:00 +4°C° 0 mm 1 mps 749 mmHg 65%
    11:00 +4°C° 0.1 mm 1 mps 748 mmHg 65%
    12:00 +4°C° 0.1 mm 1 mps 748 mmHg 66%
    13:00 +5°C° 0.1 mm 1 mps 747 mmHg 67%
    14:00 +4°C° 0.4 mm 1 mps 746 mmHg 73%
    15:00 +4°C° 0.4 mm 1 mps 746 mmHg 80%
    16:00 +4°C° 0.4 mm 1 mps 745 mmHg 86%
    17:00 +3°C° 0.8 mm 2 mps 745 mmHg 89%
    18:00 +3°C° 0.8 mm 2 mps 745 mmHg 91%
    19:00 +3°C° 0.8 mm 3 mps 746 mmHg 94%
    20:00 +3°C° 0.3 mm 4 mps 746 mmHg 92%
    21:00 +3°C° 0.3 mm 4 mps 746 mmHg 90%
    22:00 +3°C° 0.3 mm 5 mps 746 mmHg 89%
    23:00 +3°C° 0 mm 4 mps 745 mmHg 89%

    Tomorrow, 12 December, Thursday

    Time Temperature Precipitation Wind Pressure Humidity
    00:00 +3°C° 0 mm 3 mps 745 mmHg 89%
    01:00 +3°C° 0 mm 3 mps 745 mmHg 89%
    02:00 +3°C° 0 mm 3 mps 744 mmHg 90%
    03:00 +4°C° 0 mm 2 mps 744 mmHg 90%
    04:00 +4°C° 0 mm 2 mps 743 mmHg 90%
    05:00 +3°C° 0.2 mm 3 mps 743 mmHg 91%
    06:00 +3°C° 0.2 mm 3 mps 744 mmHg 92%
    07:00 +3°C° 0.2 mm 3 mps 744 mmHg 93%
    08:00 +3°C° 0.1 mm 4 mps 744 mmHg 92%
    09:00 +3°C° 0.1 mm 4 mps 744 mmHg 91%
    10:00 +3°C° 0.1 mm 4 mps 744 mmHg 90%
    11:00 +3°C° 0.1 mm 4 mps 744 mmHg 85%
    12:00 +4°C° 0.1 mm 4 mps 744 mmHg 80%
    13:00 +4°C° 0.1 mm 4 mps 744 mmHg 75%
    14:00 +4°C° 0 mm 4 mps 743 mmHg 76%
    15:00 +3°C° 0 mm 3 mps 742 mmHg 77%
    16:00 +4°C° 0 mm 2 mps 741 mmHg 79%
    17:00 +3°C° 0 mm 2 mps 741 mmHg 80%
    18:00 +3°C° 0 mm 2 mps 740 mmHg 82%
    19:00 +2°C° 0 mm 2 mps 740 mmHg 83%
    20:00 +2°C° 0 mm 2 mps 738 mmHg 83%
    21:00 +2°C° 0 mm 2 mps 737 mmHg 82%
    22:00 +1°C° 0 mm 2 mps 736 mmHg 81%
    23:00 +2°C° 0 mm 2 mps 735 mmHg 80%

    Day after tomorrow, 13 December, Friday

    Time Temperature Precipitation Wind Pressure Humidity
    00:00 +2°C° 0 mm 2 mps 733 mmHg 78%
    01:00 +2°C° 0 mm 2 mps 732 mmHg 76%
    02:00 +2°C° 0.5 mm 3 mps 730 mmHg 80%
    03:00 +2°C° 0.5 mm 3 mps 729 mmHg 83%
    04:00 +3°C° 0.5 mm 4 mps 728 mmHg 87%
    05:00 +2°C° 1 mm 5 mps 727 mmHg 88%
    06:00 +3°C° 1 mm 5 mps 726 mmHg 90%
    07:00 +3°C° 1 mm 6 mps 725 mmHg 91%
    08:00 +3°C° 0.7 mm 6 mps 725 mmHg 90%
    09:00 +3°C° 0.7 mm 6 mps 725 mmHg 89%
    10:00 +3°C° 0.7 mm 6 mps 725 mmHg 88%
    11:00 +3°C° 0.4 mm 6 mps 726 mmHg 88%
    12:00 +3°C° 0.4 mm 6 mps 727 mmHg 88%
    13:00 +3°C° 0.4 mm 6 mps 728 mmHg 88%
    14:00 +3°C° 0.2 mm 6 mps 728 mmHg 86%
    15:00 +3°C° 0.2 mm 6 mps 729 mmHg 84%
    16:00 +3°C° 0.2 mm 6 mps 730 mmHg 82%
    17:00 +3°C° 0.7 mm 6 mps 731 mmHg 85%
    18:00 +2°C° 0.7 mm 7 mps 732 mmHg 88%
    19:00 +2°C° 0.7 mm 7 mps 733 mmHg 91%
    20:00 +3°C° 0.2 mm 7 mps 734 mmHg 88%
    21:00 +3°C° 0.2 mm 7 mps 735 mmHg 85%
    22:00 +3°C° 0.2 mm 6 mps 735 mmHg 83%
    23:00 +3°C° 0.3 mm 6 mps 736 mmHg 85%

    14 December, Saturday

    Time Temperature Precipitation Wind Pressure Humidity
    00:00 +3°C° 0.3 mm 6 mps 736 mmHg 88%
    01:00 +3°C° 0.3 mm 6 mps 737 mmHg 90%
    02:00 +3°C° 0.2 mm 6 mps 737 mmHg 88%
    03:00 +4°C° 0.2 mm 6 mps 737 mmHg 86%
    04:00 +4°C° 0.2 mm 6 mps 738 mmHg 85%
    05:00 +4°C° 0.3 mm 6 mps 738 mmHg 85%
    06:00 +4°C° 0.3 mm 7 mps 738 mmHg 85%
    07:00 +4°C° 0.3 mm 8 mps 737 mmHg 85%
    08:00 +4°C° 0.3 mm 7 mps 738 mmHg 84%
    09:00 +5°C° 0.3 mm 7 mps 738 mmHg 83%
    10:00 +6°C° 0.3 mm 7 mps 738 mmHg 82%
    11:00 +6°C° 0.1 mm 7 mps 738 mmHg 81%
    12:00 +8°C° 0.1 mm 7 mps 739 mmHg 79%
    13:00 +8°C° 0.1 mm 7 mps 739 mmHg 78%
    14:00 +8°C° 0.2 mm 6 mps 739 mmHg 79%
    15:00 +8°C° 0.2 mm 5 mps 740 mmHg 80%
    16:00 +7°C° 0.2 mm 4 mps 740 mmHg 82%
    17:00 +8°C° 0.3 mm 4 mps 740 mmHg 84%
    18:00 +8°C° 0.3 mm 5 mps 740 mmHg 87%
    19:00 +8°C° 0.3 mm 5 mps 740 mmHg 90%
    20:00 +9°C° 0.9 mm 6 mps 740 mmHg 87%
    21:00 +9°C° 0.9 mm 7 mps 741 mmHg 85%
    22:00 +10°C° 0.9 mm 8 mps 741 mmHg 83%
    23:00 +10°C° 1 mm 7 mps 741 mmHg 85%

    15 December, Sunday

    Time Temperature Precipitation Wind Pressure Humidity
    00:00 +9°C° 1 mm 5 mps 742 mmHg 87%
    01:00 +8°C° 1 mm 4 mps 742 mmHg 88%
    02:00 +8°C° 1.4 mm 4 mps 742 mmHg 90%
    03:00 +9°C° 1.4 mm 3 mps 742 mmHg 92%
    04:00 +9°C° 1.4 mm 3 mps 742 mmHg 94%
    05:00 +9°C° 1.7 mm 3 mps 742 mmHg 94%
    06:00 +9°C° 1.7 mm 3 mps 742 mmHg 93%
    07:00 +8°C° 1.7 mm 4 mps 741 mmHg 92%
    08:00 +9°C° 1.8 mm 5 mps 742 mmHg 91%
    09:00 +9°C° 1.8 mm 6 mps 742 mmHg 89%
    10:00 +9°C° 1.8 mm 7 mps 743 mmHg 88%
    11:00 +9°C° 1.4 mm 7 mps 744 mmHg 82%
    12:00 +7°C° 1.4 mm 8 mps 744 mmHg 77%
    13:00 +7°C° 1.4 mm 9 mps 745 mmHg 71%
    14:00 +7°C° 0 mm 8 mps 746 mmHg 69%
    15:00 +6°C° 0 mm 7 mps 747 mmHg 68%
    16:00 +5°C° 0 mm 6 mps 748 mmHg 66%
    17:00 +6°C° 0 mm 4 mps 749 mmHg 71%
    18:00 +5°C° 0 mm 3 mps 749 mmHg 75%
    19:00 +7°C° 0 mm 1 mps 750 mmHg 80%
    20:00 +7°C° 0 mm 1 mps 750 mmHg 82%
    21:00 +7°C° 0 mm 1 mps 750 mmHg 83%
    22:00 +7°C° 0 mm 1 mps 750 mmHg 85%
    23:00 +7°C° 0 mm 1 mps 750 mmHg 85%

    16 December, Monday

    Time Temperature Precipitation Wind Pressure Humidity
    00:00 +6°C° 0 mm 2 mps 750 mmHg 86%
    01:00 +7°C° 0 mm 2 mps 749 mmHg 87%
    02:00 +8°C° 0.1 mm 1 mps 749 mmHg 88%
    03:00 +8°C° 0.1 mm 1 mps 749 mmHg 88%
    04:00 +8°C° 0.1 mm 1 mps 748 mmHg 89%
    05:00 +8°C° 0.3 mm 1 mps 748 mmHg 90%
    06:00 +8°C° 0.3 mm 1 mps 748 mmHg 92%
    07:00 +8°C° 0.3 mm 1 mps 747 mmHg 93%
    08:00 +8°C° 0.4 mm 1 mps 747 mmHg 93%
    09:00 +9°C° 0.4 mm 1 mps 747 mmHg 92%
    10:00 +9°C° 0.4 mm 1 mps 747 mmHg 92%
    11:00 +10°C° 0 mm 1 mps 747 mmHg 89%
    12:00 +10°C° 0 mm 1 mps 746 mmHg 86%
    13:00 +11°C° 0 mm 1 mps 746 mmHg 84%
    14:00 +11°C° 0.2 mm 1 mps 746 mmHg 84%
    15:00 +10°C° 0.2 mm 1 mps 745 mmHg 85%
    16:00 +10°C° 0.2 mm 1 mps 745 mmHg 86%
    17:00 +10°C° 0 mm 1 mps 745 mmHg 84%
    18:00 +9°C° 0 mm 1 mps 745 mmHg 82%
    19:00 +9°C° 0 mm 1 mps 744 mmHg 80%
    20:00 +9°C° 0 mm 1 mps 744 mmHg 79%
    21:00 +8°C° 0 mm 2 mps 744 mmHg 78%
    22:00 +8°C° 0 mm 2 mps 744 mmHg 77%
    23:00 +8°C° 0 mm 2 mps 744 mmHg 78%
    Show more